EW5657 Weather Reports


time (UTC)temp
F
wind
direction
speed
knots
gust
knots
rain 1hr
in
rain 24hr
in
rain mn
in
humidity
%
barometer
mb
20260831205532 56 322 3.5 10.4 0.00 0.00 0.00 86 1021.7
20260831205036 56 345 3.5 12.2 0.00 0.00 0.00 85 1021.7
20260831204533 56 318 3.5 12.2 0.00 0.00 0.00 86 1021.6
20260831204039 57 16 4.3 9.6 0.00 0.00 0.00 86 1021.6
20260831204033 57 2 3.5 10.4 0.00 0.00 0.00 86 1021.6
20260831203030 57 345 4.3 9.6 0.00 0.00 0.00 86 1021.7
20260831202532 57 343 3.5 7.8 0.00 0.00 0.00 85 1021.7
20260831202031 57 352 3.5 7.8 0.00 0.00 0.00 85 1021.8
20260831201531 57 346 2.6 7.8 0.00 0.00 0.00 85 1021.9
20260831201030 57 2 3.5 7.8 0.00 0.00 0.00 85 1021.9
20260831200531 57 353 3.5 8.7 0.00 0.00 0.00 85 1021.9
20260831200030 57 4 3.5 8.7 0.00 0.00 0.00 84 1021.8
20260831195533 58 5 4.3 10.4 0.00 0.00 0.00 84 1021.8
20260831195032 58 19 5.2 12.2 0.00 0.00 0.00 84 1021.9
20260831194528 58 340 6.1 13.0 0.00 0.00 0.00 84 1021.8
20260831194036 58 14 5.2 13.0 0.00 0.00 0.00 84 1021.8
20260831194030 58 10 5.2 13.0 0.00 0.00 0.00 84 1021.8
20260831193529 58 75 5.2 13.0 0.00 0.00 0.00 84 1021.8
20260831193159 58 9 6.1 13.0 0.00 0.00 0.00 84 1021.8
20260831192530 58 338 6.1 13.0 0.00 0.00 0.00 84 1021.7
20260831191529 58 358 7.0 16.5 0.00 0.00 0.00 84 1021.7
20260831191030 58 17 6.1 16.5 0.00 0.00 0.00 85 1021.7
20260831190529 58 339 5.2 13.0 0.00 0.00 0.00 85 1021.8
20260831190030 58 0 5.2 13.0 0.00 0.00 0.00 86 1022.0
20260831185527 58 346 5.2 11.3 0.00 0.00 0.00 86 1022.0
20260831185028 58 349 6.1 15.6 0.00 0.00 0.00 86 1022.0
20260831184527 58 333 6.1 15.6 0.00 0.00 0.00 87 1022.0
20260831184029 58 9 6.1 13.9 0.00 0.00 0.00 87 1022.0
20260831183528 57 343 5.2 11.3 0.00 0.00 0.00 88 1022.1
20260831183027 57 336 4.3 10.4 0.00 0.00 0.00 89 1022.2
20260831182528 57 356 3.5 10.4 0.00 0.00 0.00 89 1022.3
20260831182036 56 6 3.5 11.3 0.00 0.00 0.00 90 1022.3
20260831182027 57 358 4.3 11.3 0.00 0.00 0.00 89 1022.3
20260831181028 56 337 2.6 7.0 0.00 0.00 0.00 90 1022.4
20260831180527 56 353 2.6 6.1 0.00 0.00 0.00 90 1022.5
20260831180028 56 6 2.6 4.3 0.00 0.00 0.00 90 1022.6
20260831175526 55 10 2.6 5.2 0.00 0.00 0.00 90 1022.6
20260831175029 55 355 2.6 7.0 0.00 0.00 0.00 90 1022.7
20260831174527 55 345 2.6 7.0 0.00 0.00 0.00 90 1022.7
20260831174034 55 346 1.7 4.3 0.00 0.00 0.00 90 1022.8
20260831174028 55 347 1.7 4.3 0.00 0.00 0.00 90 1022.7
20260831173028 55 345 1.7 4.3 0.00 0.00 0.00 90 1022.8
20260831172533 54 339 0.9 3.5 0.00 0.00 0.00 90 1023.0
20260831172527 55 345 1.7 7.0 0.00 0.00 0.00 90 1022.9
20260831172024 54 345 1.7 7.0 0.00 0.00 0.00 90 1022.9
20260831171026 54 339 1.7 4.3 0.00 0.00 0.00 90 1023.2
20260831170524 54 338 1.7 4.3 0.00 0.00 0.00 90 1023.2
20260831170025 54 339 1.7 4.3 0.00 0.00 0.00 90 1023.2
20260831165524 54 339 2.6 7.0 0.00 0.00 0.00 90 1023.3
20260831165022 54 338 2.6 7.0 0.00 0.00 0.00 90 1023.4
20260831164524 54 340 1.7 5.2 0.00 0.00 0.00 90 1023.4
20260831164022 54 339 0.9 4.3 0.00 0.00 0.00 90 1023.4
20260831163523 54 338 0.9 4.3 0.00 0.00 0.00 90 1023.5
20260831163024 54 337 0.9 4.3 0.00 0.00 0.00 90 1023.6
20260831162524 54 337 1.7 4.3 0.00 0.00 0.00 90 1023.7
20260831162023 54 338 1.7 4.3 0.00 0.00 0.00 90 1023.8
20260831161522 54 335 1.7 5.2 0.00 0.00 0.00 90 1024.0
20260831161022 53 330 0.9 5.2 0.00 0.00 0.00 90 1024.0
20260831160520 53 337 0.9 4.3 0.00 0.00 0.00 90 1023.9
20260831160020 53 335 0.9 4.3 0.00 0.00 0.00 90 1024.0
20260831155522 53 331 0.9 2.6 0.00 0.00 0.00 90 1024.1
20260831155020 53 331 0.9 2.6 0.00 0.00 0.00 90 1024.1
20260831154522 53 328 0.9 2.6 0.00 0.00 0.00 90 1024.2
20260831154022 53 326 0.9 2.6 0.00 0.00 0.00 89 1024.3
20260831153529 53 326 0.9 2.6 0.00 0.00 0.00 90 1024.4
20260831153522 53 326 0.9 2.6 0.00 0.00 0.00 89 1024.3
20260831152520 53 325 0.9 4.3 0.00 0.00 0.00 90 1024.4
20260831152022 53 325 0.9 4.3 0.00 0.00 0.00 90 1024.4
20260831151521 52 323 0.9 5.2 0.00 0.00 0.00 90 1024.5
20260831151022 52 322 0.9 5.2 0.00 0.00 0.00 90 1024.5
20260831150529 51 206 0.0 0.0 0.00 0.00 0.00 89 1024.6
20260831150521 52 264 0.0 2.6 0.00 0.00 0.00 90 1024.5
20260831150020 51 244 0.0 2.6 0.00 0.00 0.00 90 1024.6
20260831145025 51 206 0.0 0.0 0.00 0.00 0.00 89 1024.7
20260831144024 51 204 0.0 0.0 0.00 0.00 0.00 89 1025.0
20260831144018 51 204 0.0 0.0 0.00 0.00 0.00 89 1024.9
20260831143644 51 204 0.0 0.0 0.00 0.00 0.00 90 1025.0
20260831142527 51 204 0.0 0.0 0.00 0.00 0.00 89 1025.3
20260831142516 51 204 0.0 0.0 0.00 0.00 0.00 90 1025.1
20260831142018 51 204 0.0 0.0 0.00 0.00 0.00 90 1025.2
20260831141017 51 204 0.0 0.0 0.00 0.00 0.00 90 1025.4
20260831140522 51 204 0.0 0.0 0.00 0.00 0.00 90 1025.6
20260831140516 51 204 0.0 0.0 0.00 0.00 0.00 90 1025.5
20260831140031 51 204 0.0 0.0 0.00 0.00 0.00 90 1025.6
20260831140017 51 204 0.0 0.0 0.00 0.00 0.00 90 1025.6
20260831135016 50 204 0.0 0.0 0.00 0.00 0.00 90 1025.7
20260831134519 51 204 0.0 0.0 0.00 0.00 0.00 90 1025.8
20260831134016 50 204 0.0 0.0 0.00 0.00 0.00 89 1025.9
20260831133515 50 204 0.0 0.0 0.00 0.00 0.00 89 1025.9
20260831133017 51 204 0.0 0.0 0.00 0.00 0.00 89 1026.0
20260831132517 51 204 0.0 0.0 0.00 0.00 0.00 89 1026.1
20260831132020 51 204 0.0 0.0 0.00 0.00 0.00 89 1026.3
20260831132013 51 204 0.0 0.0 0.00 0.00 0.00 89 1026.2
20260831131011 51 204 0.0 0.0 0.00 0.00 0.00 89 1026.4
20260831130513 51 204 0.0 0.0 0.00 0.00 0.00 89 1026.4
20260831130013 51 204 0.0 0.0 0.00 0.00 0.00 89 1026.5
20260831125512 50 204 0.0 0.0 0.00 0.00 0.00 89 1026.6
20260831125021 50 204 0.0 0.0 0.00 0.00 0.00 88 1026.7
20260831125013 50 204 0.0 0.0 0.00 0.00 0.00 88 1026.6
20260831124012 51 204 0.0 0.0 0.00 0.00 0.00 88 1026.7
20260831123518 51 204 0.0 0.0 0.00 0.00 0.00 88 1026.9
20260831123511 51 204 0.0 0.0 0.00 0.00 0.00 88 1026.8
20260831122520 51 204 0.0 0.0 0.00 0.00 0.00 88 1026.9
20260831122512 51 204 0.0 0.0 0.00 0.00 0.00 88 1026.9
20260831121512 51 204 0.0 0.0 0.00 0.00 0.00 87 1027.0
20260831121013 51 204 0.0 0.0 0.00 0.00 0.00 87 1026.9
20260831120511 51 204 0.0 0.0 0.00 0.00 0.00 87 1027.0
20260831120013 51 204 0.0 0.0 0.00 0.00 0.00 87 1026.9
20260831115512 51 204 0.0 0.0 0.00 0.00 0.00 87 1026.9
20260831115013 51 204 0.0 0.0 0.00 0.00 0.00 87 1027.0
20260831114511 51 204 0.0 0.0 0.00 0.00 0.00 87 1027.0
20260831114013 51 204 0.0 0.0 0.00 0.00 0.00 86 1027.1
20260831113511 51 204 0.0 0.0 0.00 0.00 0.00 86 1027.1
20260831113012 51 204 0.0 0.0 0.00 0.00 0.00 86 1027.1
20260831112511 52 204 0.0 0.0 0.00 0.00 0.00 86 1027.2
20260831112012 52 204 0.0 0.0 0.00 0.00 0.00 86 1027.1
20260831111511 52 204 0.0 0.0 0.00 0.00 0.00 85 1027.1
20260831111012 52 204 0.0 0.0 0.00 0.00 0.00 85 1027.1
20260831110503 52 204 0.0 0.0 0.00 0.00 0.00 85 1027.1
20260831110005 52 204 0.0 0.0 0.00 0.00 0.00 84 1027.2
20260831105503 52 204 0.0 0.0 0.00 0.00 0.00 84 1027.3
20260831105003 53 204 0.0 0.0 0.00 0.00 0.00 84 1027.3
20260831104504 53 204 0.0 0.0 0.00 0.00 0.00 84 1027.3
20260831104004 53 204 0.0 0.0 0.00 0.00 0.00 84 1027.4
20260831103511 53 204 0.0 0.0 0.00 0.00 0.00 83 1027.4
20260831103505 53 204 0.0 0.0 0.00 0.00 0.00 83 1027.4
20260831103002 53 204 0.0 0.0 0.00 0.00 0.00 83 1027.4
20260831102002 53 204 0.0 0.0 0.00 0.00 0.00 83 1027.5
20260831101502 54 204 0.0 0.0 0.00 0.00 0.00 82 1027.5
20260831101002 54 204 0.0 0.0 0.00 0.00 0.00 82 1027.4
20260831100503 54 204 0.0 0.0 0.00 0.00 0.00 82 1027.4
20260831095959 54 204 0.0 0.0 0.00 0.00 0.00 81 1027.4
20260831095459 54 204 0.0 0.0 0.00 0.00 0.00 81 1027.4
20260831094958 55 204 0.0 0.0 0.00 0.00 0.00 81 1027.4
20260831094506 55 204 0.0 0.0 0.00 0.00 0.00 80 1027.5
20260831094500 55 204 0.0 0.0 0.00 0.00 0.00 80 1027.5
20260831093629 55 204 0.0 0.0 0.00 0.00 0.00 81 1027.6
20260831093505 55 204 0.0 0.0 0.00 0.00 0.00 81 1027.7
20260831093501 55 204 0.0 0.0 0.00 0.00 0.00 80 1027.6
20260831092000 55 204 0.0 0.0 0.00 0.00 0.00 80 1027.6
20260831091502 55 204 0.0 0.0 0.00 0.00 0.00 80 1027.6
20260831091125 56 204 0.0 0.0 0.00 0.00 0.00 80 1027.7
20260831090459 56 204 0.0 0.0 0.00 0.00 0.00 80 1027.7
20260831085500 56 204 0.0 0.0 0.00 0.00 0.00 80 1027.8
20260831085003 56 204 0.0 0.0 0.00 0.00 0.00 80 1027.8
20260831084959 56 204 0.0 0.0 0.00 0.00 0.00 80 1027.8
20260831083958 56 204 0.0 0.0 0.00 0.00 0.00 81 1027.8
20260831083457 56 204 0.0 0.0 0.00 0.00 0.00 81 1027.8
20260831082957 57 204 0.0 0.0 0.00 0.00 0.00 82 1027.8
20260831082457 57 204 0.0 0.0 0.00 0.00 0.00 82 1027.9
20260831082006 57 204 0.0 0.0 0.00 0.00 0.00 82 1027.8
20260831082000 57 204 0.0 0.0 0.00 0.00 0.00 82 1027.9
20260831080958 57 204 0.0 0.0 0.00 0.00 0.00 82 1027.9
20260831080458 57 204 0.0 0.0 0.00 0.00 0.00 83 1027.9
20260831075957 57 204 0.0 0.0 0.00 0.00 0.00 83 1027.9
20260831075458 57 204 0.0 0.0 0.00 0.00 0.00 83 1027.8
20260831075000 57 204 0.0 0.0 0.00 0.00 0.00 83 1027.9
20260831074502 58 204 0.0 0.0 0.00 0.00 0.00 82 1028.0
20260831074457 57 204 0.0 0.0 0.00 0.00 0.00 82 1027.9
20260831073457 58 204 0.0 0.0 0.00 0.00 0.00 82 1027.9
20260831072956 58 204 0.0 1.7 0.00 0.00 0.00 81 1027.9
20260831072623 58 204 0.9 2.6 0.00 0.00 0.00 80 1028.0
20260831072610 58 204 0.0 2.6 0.00 0.00 0.00 81 1028.0
20260831071500 58 204 0.9 2.6 0.00 0.00 0.00 79 1028.0
20260831071454 58 205 0.9 2.6 0.00 0.00 0.00 79 1028.0
20260831070456 59 204 0.9 3.5 0.00 0.00 0.00 78 1028.0
20260831070000 59 208 0.9 3.5 0.00 0.00 0.00 76 1028.1
20260831065954 59 206 0.9 3.5 0.00 0.00 0.00 77 1028.1
20260831065456 59 208 0.9 3.5 0.00 0.00 0.00 77 1028.1
20260831064456 60 213 0.9 3.5 0.00 0.00 0.00 76 1028.2
20260831063956 60 217 0.9 3.5 0.00 0.00 0.00 76 1028.2
20260831063456 59 212 0.9 2.6 0.00 0.00 0.00 77 1028.2
20260831062954 59 214 0.9 2.6 0.00 0.00 0.00 77 1028.2
20260831062450 59 215 0.9 3.5 0.00 0.00 0.00 77 1028.3
20260831061952 59 215 0.9 3.5 0.00 0.00 0.00 77 1028.4
20260831061451 59 220 0.9 2.6 0.00 0.00 0.00 77 1028.4
20260831060952 59 207 0.9 2.6 0.00 0.00 0.00 77 1028.4
20260831060448 58 185 1.7 4.3 0.00 0.00 0.00 77 1028.5
20260831055952 58 193 1.7 7.0 0.00 0.00 0.00 77 1028.6
20260831055448 58 202 1.7 7.0 0.00 0.00 0.00 76 1028.6
20260831054950 58 202 1.7 5.2 0.00 0.00 0.00 76 1028.7
20260831054448 58 239 1.7 4.3 0.00 0.00 0.00 76 1028.8
20260831053948 58 219 1.7 6.1 0.00 0.00 0.00 78 1028.8
20260831053446 58 195 1.7 6.1 0.00 0.00 0.00 78 1028.8
20260831052946 58 200 1.7 4.3 0.00 0.00 0.00 78 1028.8
20260831052444 58 201 1.7 4.3 0.00 0.00 0.00 78 1028.9
20260831051943 58 192 1.7 4.3 0.00 0.00 0.00 78 1028.9
20260831051442 58 161 1.7 3.5 0.00 0.00 0.00 78 1029.0
20260831050944 58 210 1.7 3.5 0.00 0.00 0.00 78 1029.0
20260831050444 58 213 1.7 3.5 0.00 0.00 0.00 78 1029.1
20260831045943 58 224 0.9 3.5 0.00 0.00 0.00 79 1029.2
20260831045442 57 224 1.7 5.2 0.00 0.00 0.00 80 1029.3
20260831044944 57 224 1.7 5.2 0.00 0.00 0.00 79 1029.5
20260831044443 57 214 1.7 6.1 0.00 0.00 0.00 79 1029.6
20260831043944 57 224 0.9 6.1 0.00 0.00 0.00 80 1029.7
20260831043441 57 194 0.9 4.3 0.00 0.00 0.00 80 1029.7
20260831042949 56 196 1.7 4.3 0.00 0.00 0.00 81 1029.9
20260831042945 56 191 1.7 4.3 0.00 0.00 0.00 81 1029.8
20260831041949 56 204 2.6 7.0 0.00 0.00 0.00 80 1030.1
20260831041944 56 197 1.7 7.0 0.00 0.00 0.00 82 1030.0
20260831040942 56 185 1.7 4.3 0.00 0.00 0.00 81 1030.2
20260831040444 56 197 1.7 5.2 0.00 0.00 0.00 82 1030.3
20260831035943 55 204 1.7 5.2 0.00 0.00 0.00 81 1030.3
20260831035448 56 191 2.6 7.0 0.00 0.00 0.00 80 1030.4
20260831035444 55 203 2.6 5.2 0.00 0.00 0.00 81 1030.3
20260831034444 56 211 1.7 7.0 0.00 0.00 0.00 80 1030.5
20260831033943 56 215 1.7 4.3 0.00 0.00 0.00 81 1030.6
20260831033442 56 206 1.7 4.3 0.00 0.00 0.00 81 1030.7
20260831032940 56 180 1.7 4.3 0.00 0.00 0.00 81 1030.8
20260831032440 55 185 1.7 4.3 0.00 0.00 0.00 81 1030.9
20260831031940 56 206 1.7 5.2 0.00 0.00 0.00 81 1031.0
20260831031440 55 185 1.7 5.2 0.00 0.00 0.00 82 1031.0
20260831030940 55 203 1.7 5.2 0.00 0.00 0.00 81 1031.0
20260831030442 55 175 1.7 5.2 0.00 0.00 0.00 81 1031.2
20260831025940 55 201 1.7 5.2 0.00 0.00 0.00 82 1031.2
20260831025440 55 207 1.7 7.0 0.00 0.00 0.00 82 1031.4
20260831024939 55 200 2.6 7.0 0.00 0.00 0.00 82 1031.6
20260831024441 55 195 1.7 7.0 0.00 0.00 0.00 81 1031.6
20260831023937 55 233 2.6 7.8 0.00 0.00 0.00 82 1031.7
20260831023439 55 222 2.6 7.8 0.00 0.00 0.00 82 1031.7
20260831022936 55 175 1.7 5.2 0.00 0.00 0.00 82 1031.9
20260831022443 55 224 1.7 5.2 0.00 0.00 0.00 82 1032.1
20260831022437 55 190 1.7 5.2 0.00 0.00 0.00 82 1032.0
20260831021435 55 222 1.7 6.1 0.00 0.00 0.00 82 1032.2
20260831020932 55 256 2.6 7.0 0.00 0.00 0.00 82 1032.2
20260831020434 55 235 2.6 7.0 0.00 0.00 0.00 82 1032.3
20260831015933 55 198 2.6 4.3 0.00 0.00 0.00 82 1032.4
20260831015433 55 206 2.6 4.3 0.00 0.00 0.00 81 1032.5
20260831014931 55 233 1.7 4.3 0.00 0.00 0.00 82 1032.5
20260831014431 55 195 1.7 4.3 0.00 0.00 0.00 83 1032.7
20260831013936 54 193 1.7 4.3 0.00 0.00 0.00 84 1032.8
20260831013932 55 206 1.7 4.3 0.00 0.00 0.00 83 1032.7
20260831013429 54 230 1.7 4.3 0.00 0.00 0.00 84 1032.7
20260831012428 54 197 1.7 4.3 0.00 0.00 0.00 83 1032.9
20260831011931 54 197 0.9 3.5 0.00 0.00 0.00 85 1032.9
20260831011926 54 218 0.9 3.5 0.00 0.00 0.00 84 1032.9
20260831010927 54 195 1.7 3.5 0.00 0.00 0.00 85 1032.9
20260831010425 53 197 1.7 4.3 0.00 0.00 0.00 85 1033.0
20260831005927 53 197 0.9 4.3 0.00 0.00 0.00 85 1033.0
20260831005423 53 199 0.9 3.5 0.00 0.00 0.00 85 1033.1
20260831004924 53 185 0.9 4.3 0.00 0.00 0.00 85 1033.2
20260831004424 53 193 1.7 4.3 0.00 0.00 0.00 85 1033.2
20260831003924 53 202 1.7 4.3 0.00 0.00 0.00 85 1033.2
20260831003424 53 205 1.7 4.3 0.00 0.00 0.00 85 1033.3
20260831002923 53 212 0.9 3.5 0.00 0.00 0.00 85 1033.3
20260831002424 53 237 0.9 3.5 0.00 0.00 0.00 85 1033.3
20260831001924 53 205 0.9 2.6 0.00 0.00 0.00 86 1033.3
20260831001424 53 206 0.9 3.5 0.00 0.00 0.00 86 1033.3
20260831000924 53 191 0.9 3.5 0.00 0.00 0.00 86 1033.4
20260831000425 53 168 0.9 3.5 0.00 0.00 0.00 86 1033.4
20260830235923 53 156 0.9 3.5 0.00 0.00 0.00 86 1033.4
20260830235422 53 192 0.9 3.5 0.00 0.00 0.00 86 1033.3
20260830234929 53 208 0.0 3.5 0.00 0.00 0.00 86 1033.4
20260830234923 53 193 0.9 3.5 0.00 0.00 0.00 86 1033.4
20260830233922 53 210 0.0 4.3 0.00 0.00 0.00 87 1033.4
20260830233422 53 210 0.0 4.3 0.00 0.00 0.00 86 1033.4
20260830232923 53 221 0.0 2.6 0.00 0.00 0.00 87 1033.4
20260830232421 53 222 0.0 3.5 0.00 0.00 0.00 87 1033.4
20260830231923 52 221 0.9 3.5 0.00 0.00 0.00 87 1033.4
20260830231421 52 195 0.9 3.5 0.00 0.00 0.00 87 1033.4
20260830230921 52 193 0.0 3.5 0.00 0.00 0.00 87 1033.3
20260830230421 52 206 0.0 1.7 0.00 0.00 0.00 87 1033.3
20260830225921 52 206 0.0 2.6 0.00 0.00 0.00 88 1033.3
20260830225421 52 206 0.0 2.6 0.00 0.00 0.00 87 1033.3
20260830224921 52 210 0.0 1.7 0.00 0.00 0.00 88 1033.3
20260830224419 52 210 0.0 1.7 0.00 0.00 0.00 88 1033.3
20260830223920 52 210 0.0 2.6 0.00 0.00 0.00 88 1033.4
20260830223419 52 210 0.0 2.6 0.00 0.00 0.00 88 1033.4
20260830222921 52 208 0.0 2.6 0.00 0.00 0.00 88 1033.4
20260830222417 52 208 0.0 2.6 0.00 0.00 0.00 88 1033.4
20260830221919 52 208 0.0 1.7 0.00 0.00 0.00 88 1033.3
20260830221421 52 207 0.0 2.6 0.00 0.00 0.00 89 1033.3
20260830220918 52 207 0.0 2.6 0.00 0.00 0.00 89 1033.3
20260830220417 52 208 0.0 3.5 0.00 0.00 0.00 89 1033.3
20260830215919 52 208 0.9 3.5 0.00 0.00 0.00 89 1033.3
20260830215415 52 209 0.0 2.6 0.00 0.00 0.00 89 1033.3
20260830214917 52 208 0.0 1.7 0.00 0.00 0.00 89 1033.3
20260830214421 52 208 0.0 1.7 0.00 0.00 0.00 90 1033.3
20260830214415 52 208 0.0 1.7 0.00 0.00 0.00 89 1033.3
20260830213415 52 208 0.0 1.7 0.00 0.00 0.00 90 1033.2
20260830212915 52 208 0.0 1.7 0.00 0.00 0.00 90 1033.2
20260830212415 52 208 0.0 1.7 0.00 0.00 0.00 90 1033.1
20260830211914 51 208 0.0 1.7 0.00 0.00 0.00 90 1033.1
20260830211415 51 208 0.0 1.7 0.00 0.00 0.00 90 1033.1
20260830210913 51 208 0.0 1.7 0.00 0.00 0.00 90 1033.1
20260830210414 51 208 0.0 0.9 0.00 0.00 0.00 90 1033.1
20260830205919 51 208 0.0 0.9 0.00 0.00 0.00 90 1033.1
20260830205914 51 208 0.0 0.9 0.00 0.00 0.00 90 1033.1